GW3580 Weather Reports


Display with metric or nautical units.
time (UTC)temp
F
wind
direction
speed
MPH
gust
MPH
rain 1hr
in
rain 24hr
in
rain mn
in
humidity
%
barometer
mb
20260507054125 64 60 0.0 1.0 0.00 0.00 0.00 68 1016.9
20260507053623 64 15 0.0 0.0 0.00 0.00 0.00 68 1016.8
20260507053121 65 15 0.0 0.0 0.00 0.00 0.00 67 1016.8
20260507052619 65 15 0.0 0.0 0.00 0.00 0.00 66 1016.8
20260507052115 66 15 0.0 0.0 0.00 0.00 0.00 66 1016.8
20260507051613 66 15 0.0 0.0 0.00 0.00 0.00 66 1017.0
20260507051109 66 260 0.0 0.0 0.00 0.00 0.00 67 1017.0
20260507050606 66 255 0.0 0.0 0.00 0.00 0.00 68 1017.0
20260507045559 66 251 0.0 0.0 0.00 0.00 0.00 68 1016.9
20260507045056 67 251 0.0 0.0 0.00 0.00 0.00 67 1016.8
20260507044553 67 251 0.0 0.0 0.00 0.00 0.00 66 1016.9
20260507044050 67 251 0.0 0.0 0.00 0.00 0.00 65 1016.8
20260507043545 67 251 0.0 0.0 0.00 0.00 0.00 65 1016.7
20260507043043 67 251 0.0 0.0 0.00 0.00 0.00 65 1016.8
20260507042539 67 251 0.0 0.0 0.00 0.00 0.00 65 1016.5
20260507042035 68 251 0.0 0.0 0.00 0.00 0.00 66 1016.6
20260507041532 68 251 0.0 0.0 0.00 0.00 0.00 65 1016.6
20260507041029 68 250 0.0 0.0 0.00 0.00 0.00 65 1016.4
20260507040525 68 250 0.0 0.0 0.00 0.00 0.00 65 1016.6
20260507040021 68 250 0.0 0.0 0.00 0.00 0.00 65 1016.5
20260507035518 69 250 0.0 0.0 0.00 0.00 0.00 64 1016.5
20260507035014 69 250 0.0 0.0 0.00 0.00 0.00 64 1016.3
20260507034511 69 250 0.0 0.0 0.00 0.00 0.00 63 1016.2
20260507034009 69 250 0.0 0.0 0.00 0.00 0.00 62 1016.3
20260507033507 69 250 0.0 0.0 0.00 0.00 0.00 61 1016.2
20260507033004 69 250 0.0 0.0 0.00 0.00 0.00 60 1016.1
20260507032501 70 250 0.0 0.0 0.00 0.00 0.00 60 1016.1
20260507031956 70 250 0.0 0.0 0.00 0.00 0.00 59 1016.1
20260507031453 70 250 0.0 0.0 0.00 0.00 0.00 58 1015.9
20260507030950 71 250 0.0 0.0 0.00 0.00 0.00 58 1015.9
20260507030447 71 250 0.0 0.0 0.00 0.00 0.00 57 1016.0
20260507025944 72 250 0.0 0.0 0.00 0.00 0.00 55 1015.6
20260507025441 72 250 0.0 0.0 0.00 0.00 0.00 54 1015.9
20260507024939 73 250 0.0 0.0 0.00 0.00 0.00 53 1015.8
20260507024436 73 250 0.0 0.0 0.00 0.00 0.00 52 1016.0
20260507023932 74 249 2.0 2.0 0.00 0.00 0.00 52 1016.0
20260507023429 74 292 1.0 1.0 0.00 0.00 0.00 50 1015.9
20260507022926 75 14 0.0 0.0 0.00 0.00 0.00 48 1015.5
20260507022423 75 14 0.0 0.0 0.00 0.00 0.00 46 1015.5
20260507021919 75 14 0.0 0.0 0.00 0.00 0.00 46 1015.6
20260507021414 76 14 1.0 1.0 0.00 0.00 0.00 45 1015.7
20260507020912 76 295 0.0 0.0 0.00 0.00 0.00 43 1015.5
20260507020409 76 273 1.0 1.0 0.00 0.00 0.00 43 1015.7
20260507015906 76 283 1.0 2.0 0.00 0.00 0.00 44 1015.6
20260507015404 76 258 3.0 4.0 0.00 0.00 0.00 44 1015.8
20260507014900 76 260 4.0 5.0 0.00 0.00 0.00 43 1015.7
20260507014356 76 260 4.0 4.0 0.00 0.00 0.00 42 1015.6
20260507013853 77 257 2.0 2.0 0.00 0.00 0.00 42 1015.8
20260507013350 78 265 1.0 1.0 0.00 0.00 0.00 42 1015.7
20260507012848 77 222 2.0 2.0 0.00 0.00 0.00 42 1015.8
20260507012343 77 257 3.0 5.0 0.00 0.00 0.00 43 1015.6
20260507011841 78 233 2.0 2.0 0.00 0.00 0.00 42 1015.8
20260507011337 78 267 0.0 0.0 0.00 0.00 0.00 42 1015.7
20260507010832 78 227 2.0 4.0 0.00 0.00 0.00 41 1015.8
20260507010328 77 247 3.0 4.0 0.00 0.00 0.00 42 1015.8
20260507005825 77 275 3.0 4.0 0.00 0.00 0.00 41 1015.7
20260507005322 78 248 2.0 2.0 0.00 0.00 0.00 41 1015.7
20260507004819 78 291 0.0 0.0 0.00 0.00 0.00 41 1015.7
20260507004316 78 46 1.0 2.0 0.00 0.00 0.00 41 1015.5
20260507003813 77 281 5.0 6.0 0.00 0.00 0.00 41 1015.7
20260507003308 78 245 3.0 4.0 0.00 0.00 0.00 40 1015.7
20260507002803 78 25 2.0 4.0 0.00 0.00 0.00 41 1015.8
20260507002300 78 238 2.0 2.0 0.00 0.00 0.00 41 1015.8
20260507001757 79 334 0.0 1.0 0.00 0.00 0.00 40 1015.8
20260507001254 78 320 0.0 1.0 0.00 0.00 0.00 39 1015.7
20260507000750 77 244 2.0 2.0 0.00 0.00 0.00 41 1015.8
20260507000246 77 266 2.0 2.0 0.00 0.00 0.00 42 1015.8
20260506235743 78 254 5.0 7.0 0.00 0.00 0.00 41 1015.5
20260506235238 77 249 4.0 5.0 0.00 0.00 0.00 40 1015.8
20260506234736 77 273 2.0 2.0 0.00 0.00 0.00 41 1015.8
20260506234233 78 262 3.0 4.0 0.00 0.00 0.00 40 1015.8
20260506233730 78 346 1.0 1.0 0.00 0.00 0.00 40 1015.7
20260506233227 77 272 1.0 1.0 0.00 0.00 0.00 40 1015.8
20260506232724 78 286 6.0 7.0 0.00 0.00 0.00 39 1015.9
20260506232218 77 274 1.0 1.0 0.00 0.00 0.00 40 1015.9
20260506231716 78 357 2.0 2.0 0.00 0.00 0.00 39 1015.9
20260506231214 78 10 1.0 2.0 0.00 0.00 0.00 40 1016.0
20260506230710 78 57 2.0 2.0 0.00 0.00 0.00 39 1016.1
20260506230208 78 69 3.0 5.0 0.00 0.00 0.00 40 1015.9
20260506225704 78 23 2.0 2.0 0.00 0.00 0.00 41 1016.1
20260506225201 78 246 1.0 2.0 0.00 0.00 0.00 41 1016.4
20260506224657 78 263 2.0 2.0 0.00 0.00 0.00 40 1016.3
20260506224154 78 210 2.0 2.0 0.00 0.00 0.00 40 1016.4
20260506223650 77 16 1.0 1.0 0.00 0.00 0.00 41 1016.4
20260506223146 77 241 2.0 4.0 0.00 0.00 0.00 41 1016.6
20260506222643 77 251 1.0 1.0 0.00 0.00 0.00 43 1016.6
20260506222139 76 249 1.0 2.0 0.00 0.00 0.00 41 1016.7
20260506221637 76 264 4.0 5.0 0.00 0.00 0.00 41 1016.6
20260506221135 75 55 1.0 2.0 0.00 0.00 0.00 42 1016.8
20260506220632 75 280 0.0 1.0 0.00 0.00 0.00 42 1016.7
20260506220127 75 41 3.0 5.0 0.00 0.00 0.00 41 1016.9
20260506215624 74 220 2.0 2.0 0.00 0.00 0.00 42 1017.0
20260506215119 75 246 2.0 4.0 0.00 0.00 0.00 41 1017.1
20260506214616 76 278 1.0 1.0 0.00 0.00 0.00 42 1017.1
20260506214114 77 275 2.0 2.0 0.00 0.00 0.00 40 1017.1
20260506213612 77 269 1.0 1.0 0.00 0.00 0.00 42 1017.5
20260506213109 75 0 1.0 1.0 0.00 0.00 0.00 40 1017.2
20260506212606 75 254 4.0 6.0 0.00 0.00 0.00 41 1017.3
20260506212101 76 278 1.0 1.0 0.00 0.00 0.00 41 1017.4
20260506211557 76 318 0.0 1.0 0.00 0.00 0.00 40 1017.5
20260506211054 74 56 3.0 4.0 0.00 0.00 0.00 40 1017.4
20260506210550 75 302 2.0 2.0 0.00 0.00 0.00 41 1017.5
20260506210047 74 308 0.0 1.0 0.00 0.00 0.00 41 1017.6
20260506205544 76 135 0.0 1.0 0.00 0.00 0.00 40 1017.6
20260506205039 75 268 1.0 1.0 0.00 0.00 0.00 41 1017.7
20260506204537 75 23 2.0 2.0 0.00 0.00 0.00 40 1017.6
20260506204034 75 46 1.0 2.0 0.00 0.00 0.00 40 1017.6
20260506203532 74 42 1.0 1.0 0.00 0.00 0.00 40 1017.6
20260506203028 74 334 2.0 2.0 0.00 0.00 0.00 43 1018.0
20260506202526 73 316 1.0 1.0 0.00 0.00 0.00 43 1017.9
20260506202022 72 246 1.0 2.0 0.00 0.00 0.00 44 1017.9
20260506201520 74 269 4.0 5.0 0.00 0.00 0.00 41 1018.0
20260506201016 73 251 3.0 4.0 0.00 0.00 0.00 44 1018.2
20260506200512 72 246 2.0 2.0 0.00 0.00 0.00 47 1018.0
20260506200009 71 224 0.0 0.0 0.00 0.00 0.00 48 1018.1
20260506195507 72 261 3.0 4.0 0.00 0.00 0.00 47 1018.4
20260506195002 72 49 3.0 4.0 0.00 0.00 0.00 46 1018.3
20260506194500 73 21 2.0 2.0 0.00 0.00 0.00 46 1018.2
20260506193956 72 5 2.0 2.0 0.00 0.00 0.00 46 1018.6
20260506193454 72 290 1.0 1.0 0.00 0.00 0.00 47 1018.5
20260506192950 72 264 1.0 2.0 0.00 0.00 0.00 48 1018.7
20260506192448 72 281 2.0 4.0 0.00 0.00 0.00 45 1018.3
20260506191944 70 128 0.0 1.0 0.00 0.00 0.00 48 1018.7
20260506191440 70 280 5.0 6.0 0.00 0.00 0.00 49 1018.7
20260506190937 70 47 1.0 2.0 0.00 0.00 0.00 50 1018.8
20260506190434 69 230 2.0 2.0 0.00 0.00 0.00 51 1018.8
20260506185931 70 255 1.0 4.0 0.00 0.00 0.00 50 1018.7
20260506185428 69 239 4.0 5.0 0.00 0.00 0.00 52 1018.8
20260506184925 70 239 3.0 4.0 0.00 0.00 0.00 51 1019.0
20260506184422 70 278 3.0 4.0 0.00 0.00 0.00 52 1018.9
20260506183919 71 33 0.0 0.0 0.00 0.00 0.00 49 1018.8
20260506183414 69 275 2.0 2.0 0.00 0.00 0.00 51 1019.1
20260506182912 69 22 1.0 1.0 0.00 0.00 0.00 49 1019.1
20260506182409 68 248 1.0 1.0 0.00 0.00 0.00 53 1019.0
20260506181906 68 243 1.0 1.0 0.00 0.00 0.00 55 1019.1
20260506181404 68 276 2.0 4.0 0.00 0.00 0.00 56 1019.1
20260506180901 68 297 3.0 4.0 0.00 0.00 0.00 57 1018.9
20260506180357 69 310 2.0 2.0 0.00 0.00 0.00 55 1018.9
20260506175854 68 342 0.0 1.0 0.00 0.00 0.00 58 1019.1
20260506175350 66 261 1.0 2.0 0.00 0.00 0.00 59 1019.1
20260506174847 66 261 3.0 4.0 0.00 0.00 0.00 60 1019.2
20260506174345 66 228 1.0 2.0 0.00 0.00 0.00 60 1019.1
20260506173842 67 239 1.0 1.0 0.00 0.00 0.00 60 1019.3
20260506173339 66 63 1.0 1.0 0.00 0.00 0.00 61 1019.2
20260506172836 67 279 2.0 2.0 0.00 0.00 0.00 61 1019.0
20260506172333 66 2 0.0 1.0 0.00 0.00 0.00 61 1019.2
20260506171830 65 244 2.0 2.0 0.00 0.00 0.00 64 1019.2
20260506171327 64 274 2.0 2.0 0.00 0.00 0.00 67 1019.2
20260506170825 64 257 3.0 4.0 0.00 0.00 0.00 67 1019.2
20260506170320 63 321 2.0 2.0 0.00 0.00 0.00 67 1019.3
20260506165820 63 271 2.0 4.0 0.00 0.00 0.00 68 1019.3
20260506165317 63 26 0.0 1.0 0.00 0.00 0.00 68 1019.2
20260506164813 63 343 0.0 0.0 0.00 0.00 0.00 68 1019.2
20260506164310 63 266 1.0 1.0 0.00 0.00 0.00 68 1019.4
20260506163807 62 279 1.0 2.0 0.00 0.00 0.00 70 1019.4
20260506163302 62 0 0.0 0.0 0.00 0.00 0.00 71 1019.4
20260506162758 61 244 1.0 1.0 0.00 0.00 0.00 72 1019.3
20260506162256 62 258 1.0 1.0 0.00 0.00 0.00 71 1019.4
20260506161753 60 284 2.0 2.0 0.00 0.00 0.00 73 1019.5
20260506161250 61 342 1.0 1.0 0.00 0.00 0.00 73 1019.5
20260506160748 60 43 0.0 1.0 0.00 0.00 0.00 75 1019.5
20260506160244 59 234 1.0 1.0 0.00 0.00 0.00 75 1019.6
20260506155743 59 291 2.0 2.0 0.00 0.00 0.00 76 1019.6
20260506155239 59 134 1.0 1.0 0.00 0.00 0.00 76 1019.4
20260506153347 57 259 3.0 4.0 0.00 0.00 0.00 79 1019.7
20260506152843 57 280 2.0 2.0 0.00 0.00 0.00 79 1019.6
20260506152341 57 255 2.0 2.0 0.00 0.00 0.00 79 1019.4
20260506151839 57 269 3.0 5.0 0.00 0.00 0.00 79 1019.6
20260506151335 56 358 0.0 0.0 0.00 0.00 0.00 81 1019.5
20260506150833 56 35 0.0 0.0 0.00 0.00 0.00 81 1019.4
20260506150329 55 290 1.0 1.0 0.00 0.00 0.00 81 1019.5
20260506145826 55 269 1.0 1.0 0.00 0.00 0.00 82 1019.7
20260506145322 54 267 3.0 4.0 0.00 0.00 0.00 83 1019.5
20260506144820 54 256 2.0 2.0 0.00 0.00 0.00 83 1019.5
20260506144317 54 350 0.0 0.0 0.00 0.00 0.00 84 1019.6
20260506143815 54 273 2.0 2.0 0.00 0.00 0.00 85 1019.4
20260506143312 53 278 0.0 0.0 0.00 0.00 0.00 86 1019.4
20260506142810 53 236 1.0 2.0 0.00 0.00 0.00 86 1019.4
20260506142308 53 273 0.0 1.0 0.00 0.00 0.00 86 1019.2
20260506141806 53 328 0.0 0.0 0.00 0.00 0.00 87 1019.2
20260506141303 52 18 0.0 0.0 0.00 0.00 0.00 88 1019.2
20260506140801 52 17 0.0 0.0 0.00 0.00 0.00 88 1019.3
20260506140258 52 20 0.0 0.0 0.00 0.00 0.00 88 1019.1
20260506135755 52 356 0.0 0.0 0.00 0.00 0.00 88 1019.0
20260506135251 51 292 0.0 0.0 0.00 0.00 0.00 88 1018.9
20260506134748 51 286 1.0 1.0 0.00 0.00 0.00 88 1019.1
20260506134244 51 8 0.0 0.0 0.00 0.00 0.00 88 1018.9
20260506133741 51 2 0.0 0.0 0.00 0.00 0.00 88 1018.9
20260506133238 51 313 0.0 0.0 0.00 0.00 0.00 88 1018.6
20260506132735 51 274 0.0 0.0 0.00 0.00 0.00 88 1018.9
20260506132232 50 284 0.0 0.0 0.00 0.00 0.00 88 1018.7
20260506131730 51 284 0.0 0.0 0.00 0.00 0.00 88 1018.8
20260506131226 51 284 0.0 0.0 0.00 0.00 0.00 88 1018.5
20260506130723 51 284 0.0 0.0 0.00 0.00 0.00 88 1018.5
20260506130220 51 281 0.0 0.0 0.00 0.00 0.00 88 1018.5
20260506125718 51 275 1.0 1.0 0.00 0.00 0.00 88 1018.3
20260506125215 51 293 0.0 0.0 0.00 0.00 0.00 88 1018.2
20260506124713 51 281 1.0 1.0 0.00 0.00 0.00 88 1018.3
20260506124211 51 295 1.0 1.0 0.00 0.00 0.00 88 1018.3
20260506123708 51 26 0.0 0.0 0.00 0.00 0.00 88 1018.3
20260506123207 51 26 0.0 0.0 0.00 0.00 0.00 88 1018.2
20260506122703 51 26 0.0 0.0 0.00 0.00 0.00 88 1018.2
20260506122201 51 26 0.0 0.0 0.00 0.00 0.00 88 1018.2
20260506121658 51 26 0.0 0.0 0.00 0.00 0.00 88 1018.2
20260506121154 51 26 0.0 0.0 0.00 0.00 0.00 88 1018.1
20260506120653 50 26 0.0 0.0 0.00 0.00 0.00 88 1018.0
20260506120150 51 26 0.0 0.0 0.00 0.00 0.00 88 1018.1
20260506115648 51 26 0.0 0.0 0.00 0.00 0.00 87 1018.2
20260506115146 51 26 0.0 0.0 0.00 0.00 0.00 87 1018.1
20260506114643 51 26 0.0 0.0 0.00 0.00 0.00 87 1018.1
20260506114141 51 26 0.0 0.0 0.00 0.00 0.00 87 1018.1
20260506113639 51 25 0.0 0.0 0.00 0.00 0.00 87 1018.0
20260506113136 51 25 0.0 0.0 0.00 0.00 0.00 87 1018.0
20260506112632 51 26 0.0 0.0 0.00 0.00 0.00 87 1017.9
20260506112130 51 26 0.0 0.0 0.00 0.00 0.00 87 1017.7
20260506111627 51 25 0.0 0.0 0.00 0.00 0.00 87 1017.7
20260506111125 51 25 0.0 0.0 0.00 0.00 0.00 87 1017.8
20260506110622 52 25 0.0 0.0 0.00 0.00 0.00 87 1017.8
20260506110119 52 27 0.0 0.0 0.00 0.00 0.00 87 1017.9
20260506105616 52 12 0.0 0.0 0.00 0.00 0.00 87 1017.9
20260506105113 52 4 0.0 0.0 0.00 0.00 0.00 86 1017.6
20260506104611 52 4 0.0 0.0 0.00 0.00 0.00 86 1017.6
20260506104108 52 4 0.0 0.0 0.00 0.00 0.00 86 1017.6
20260506103605 52 3 0.0 0.0 0.00 0.00 0.00 86 1017.7
20260506103102 52 3 0.0 0.0 0.00 0.00 0.00 86 1017.7
20260506102600 52 3 0.0 0.0 0.00 0.00 0.00 86 1017.7
20260506102057 53 3 0.0 0.0 0.00 0.00 0.00 86 1017.9
20260506101554 53 3 0.0 0.0 0.00 0.00 0.00 85 1017.6
20260506101051 53 3 0.0 0.0 0.00 0.00 0.00 85 1017.5
20260506100549 53 11 0.0 0.0 0.00 0.00 0.00 85 1017.6
20260506100047 53 11 0.0 0.0 0.00 0.00 0.00 85 1017.5
20260506095546 53 10 0.0 0.0 0.00 0.00 0.00 85 1017.5
20260506095042 53 10 0.0 0.0 0.00 0.00 0.00 84 1017.5
20260506094539 54 7 0.0 0.0 0.00 0.00 0.00 84 1017.4
20260506094037 54 336 0.0 0.0 0.00 0.00 0.00 84 1017.3
20260506093535 54 266 0.0 0.0 0.00 0.00 0.00 84 1017.3
20260506093032 54 266 0.0 0.0 0.00 0.00 0.00 84 1017.4
20260506092530 54 251 0.0 0.0 0.00 0.00 0.00 84 1017.4
20260506092027 54 259 0.0 0.0 0.00 0.00 0.00 84 1017.2
20260506091525 54 269 0.0 1.0 0.00 0.00 0.00 84 1017.2
20260506091022 54 244 1.0 1.0 0.00 0.00 0.00 85 1017.1
20260506090520 54 252 0.0 0.0 0.00 0.00 0.00 85 1017.2
20260506090016 53 310 0.0 0.0 0.00 0.00 0.00 84 1017.5
20260506085513 54 309 0.0 0.0 0.00 0.00 0.00 84 1017.5
20260506085009 54 16 0.0 0.0 0.00 0.00 0.00 84 1017.6
20260506084506 53 7 0.0 0.0 0.00 0.00 0.00 83 1017.7
20260506084002 53 7 0.0 0.0 0.00 0.00 0.00 83 1017.6
20260506083500 54 7 0.0 0.0 0.00 0.00 0.00 83 1017.5
20260506082957 54 7 0.0 0.0 0.00 0.00 0.00 82 1017.5
20260506082454 54 20 0.0 0.0 0.00 0.00 0.00 82 1017.5
20260506081949 54 21 0.0 0.0 0.00 0.00 0.00 82 1017.3
20260506081448 54 20 0.0 0.0 0.00 0.00 0.00 82 1017.6
20260506080945 54 20 0.0 0.0 0.00 0.00 0.00 81 1017.4
20260506080442 55 20 0.0 0.0 0.00 0.00 0.00 81 1017.6
20260506073426 55 276 0.0 0.0 0.00 0.00 0.00 80 1017.2
20260506072923 56 275 0.0 0.0 0.00 0.00 0.00 80 1017.1
20260506072420 56 338 1.0 1.0 0.00 0.00 0.00 80 1017.2
20260506071918 55 34 0.0 0.0 0.00 0.00 0.00 80 1016.9
20260506071416 55 27 0.0 0.0 0.00 0.00 0.00 79 1017.1
20260506070912 55 29 0.0 0.0 0.00 0.00 0.00 79 1017.1
20260506070409 56 29 0.0 0.0 0.00 0.00 0.00 79 1017.0
20260506062347 57 28 0.0 0.0 0.00 0.00 0.00 78 1016.4
20260506061842 57 28 0.0 0.0 0.00 0.00 0.00 78 1016.5
20260506061339 57 28 0.0 0.0 0.00 0.00 0.00 78 1016.7
20260506060837 57 119 0.0 0.0 0.00 0.00 0.00 78 1016.3
20260506060335 57 119 0.0 0.0 0.00 0.00 0.00 77 1016.3